Fairfield, NJ

10:19 PM EST on February 21, 2017 (GMT -0500)
Essex County

Weather History for KCDW - May, 2013

Change the Weather History Date:

Sunday, May 26, 2013

  Actual Average Record
Temperature  
Mean Temperature 56 °F -  
Max Temperature 66 °F 72 °F 91 °F (1991)
Min Temperature 46 °F 50 °F 39 °F (1972)
Degree Days  
Heating Degree Days 9    
Growing Degree Days 6 (Base 50)    
Moisture  
Dew Point 35 °F    
Average Humidity 47    
Maximum Humidity 68    
Minimum Humidity 27    
Precipitation  
Precipitation 0.00 in - - ()
Sea Level Pressure  
Sea Level Pressure 30.08 in    
Wind  
Wind Speed 11 mph (WNW)    
Max Wind Speed 16 mph    
Max Gust Speed 28 mph    
Visibility 10 miles    
Events      
Averages and records for this station are not official NWS values.
T = Trace of Precipitation, MM = Missing Value Source: NWS Daily Summary

Daily Weather History Graph

Daily Weather History Graph

Search for Another Location

Airport or City:

Trip Planner

Search our weather history database for the weather conditions in past years. The results will help you decide how hot, cold, wet, or windy it might be!

Date:

Astronomy

May. 26, 2013 Rise Set
Actual Time 5:30 AM EDT 8:18 PM EDT
Civil Twilight 4:58 AM EDT 8:50 PM EDT
Nautical Twilight 4:17 AM EDT 9:31 PM EDT
Astronomical Twilight 3:31 AM EDT 10:17 PM EDT
Moon 10:03 PM EDT (5/26) 6:57 AM EDT (5/26)
Length of Visible Light 15h 52m
Length of Day
14h 47m
Waning Gibbous, 97% of the Moon is Illuminated
May 26
Waning Gibbous
May 31
Last Quarter
Jun 8
New
Jun 16
First Quarter
Jun 23
Full

Hourly Weather History & Observations

Time (EDT) Temp. Dew Point Humidity Pressure Visibility Wind Dir Wind Speed Gust Speed Precip Events Conditions
12:53 AM 48.9 °F 35.1 °F 59% 30.01 in 10.0 mi NW 15.0 mph 26.5 mph N/A   Mostly Cloudy
1:53 AM 48.0 °F 36.0 °F 63% 30.01 in 10.0 mi NW 13.8 mph 20.7 mph N/A   Partly Cloudy
2:53 AM 46.9 °F 37.0 °F 68% 30.01 in 10.0 mi NW 9.2 mph - N/A   Mostly Cloudy
3:53 AM 46.9 °F 37.0 °F 68% 30.00 in 10.0 mi WNW 5.8 mph 16.1 mph N/A   Clear
4:53 AM 46.9 °F 37.0 °F 68% 30.02 in 10.0 mi West 6.9 mph - N/A   Clear
5:53 AM 46.9 °F 37.0 °F 68% 30.03 in 10.0 mi West 6.9 mph - N/A   Clear
6:53 AM 48.0 °F 37.9 °F 68% 30.04 in 10.0 mi West 5.8 mph - N/A   Clear
7:53 AM 51.1 °F 37.9 °F 61% 30.05 in 10.0 mi WNW 12.7 mph 19.6 mph N/A   Clear
8:53 AM 54.0 °F 36.0 °F 51% 30.06 in 10.0 mi NW 9.2 mph 18.4 mph N/A   Clear
9:53 AM 57.0 °F 34.0 °F 42% 30.04 in 10.0 mi NW 16.1 mph 24.2 mph N/A   Partly Cloudy
10:53 AM 59.0 °F 36.0 °F 42% 30.05 in 10.0 mi NNW 13.8 mph 27.6 mph N/A   Mostly Cloudy
11:53 AM 59.0 °F 34.0 °F 39% 30.06 in 10.0 mi NW 16.1 mph 25.3 mph N/A   Mostly Cloudy
12:53 PM 63.0 °F 33.1 °F 33% 30.05 in 10.0 mi NNW 11.5 mph 20.7 mph N/A   Partly Cloudy
1:53 PM 64.9 °F 32.0 °F 29% 30.05 in 10.0 mi WNW 13.8 mph 23.0 mph N/A   Partly Cloudy
2:53 PM 66.0 °F 32.0 °F 28% 30.05 in 10.0 mi NW 15.0 mph 27.6 mph N/A   Partly Cloudy
3:53 PM 66.9 °F 32.0 °F 27% 30.06 in 10.0 mi WNW 15.0 mph 25.3 mph N/A   Mostly Cloudy
4:53 PM 66.0 °F 32.0 °F 28% 30.07 in 10.0 mi NNW 12.7 mph 25.3 mph N/A   Partly Cloudy
5:53 PM 64.9 °F 33.1 °F 31% 30.09 in 10.0 mi NNW 10.4 mph 23.0 mph N/A   Partly Cloudy
6:53 PM 64.0 °F 30.9 °F 29% 30.12 in 10.0 mi NW 11.5 mph 21.9 mph N/A   Clear
7:53 PM 62.1 °F 30.9 °F 31% 30.14 in 10.0 mi NW 6.9 mph - N/A   Clear
8:53 PM 57.9 °F 33.1 °F 39% 30.17 in 10.0 mi NNW 3.5 mph - N/A   Clear
9:53 PM 55.9 °F 35.1 °F 45% 30.20 in 10.0 mi Calm Calm - N/A   Clear
10:53 PM 52.0 °F 37.0 °F 57% 30.22 in 10.0 mi South 3.5 mph - N/A   Clear
11:53 PM 50.0 °F 37.9 °F 63% 30.23 in 10.0 mi South 3.5 mph - N/A   Clear